Weather Roundup
Issued by NWS Chicago, IL

Home | Current Version | Previous Version | Graphics & Text | Print | Product List | Glossary On
Versions: 1 2 3 4 5 6 7 8 9 10 11 12 13 14 15 16 17 18 19 20 21 22 23 24 25 26 27 28 29 30 31 32 33 34 35 36 37 38 39 40 41 42 43 44 45 46 47 48 49 50
000
NZUS59 KLOT 290706
HRRLOT

CHICAGO AREA WEATHER ROUNDUP
NATIONAL WEATHER SERVICE CHICAGO/ROMEOVILLE IL
100 AM CST SAT NOV 29 2014

NOTE: "FAIR" INDICATES FEW OR NO CLOUDS BELOW 12,000 FEET WITH NO
SIGNIFICANT WEATHER AND/OR OBSTRUCTIONS TO VISIBILITY.

* THESE STATIONS ARE NOT UNDER NWS QUALITY CONTROL. THEY ALSO MAY NOT
  REPORT WEATHER SUCH AS PRECIPITATION OR FOG.

ILZ005-006-012>014-019>023-290800-
NORTHEAST ILLINOIS

CITY           SKY/WX    TMP DP  RH WIND       PRES   REMARKS
OHARE          PTCLDY    30  27  88 S9        29.84F WCI  22
MIDWAY         CLEAR     34  28  79 SE6       29.87F WCI  29
AURORA         CLEAR     30  25  81 SE8       29.84F HAZE    WCI  22
LANSING*       PTCLDY    31  26  83 S6        29.89F WCI  25
JOLIET*        CLEAR     32  28  86 S7        29.85F WCI  26
WAUKEGAN       MOCLDY    32  28  85 S8        29.83F WCI  25
DUPAGE AIRPORT CLEAR     31  27  85 SE7       29.83F WCI  24
WHEELING       PTCLDY    32  27  81 S8        29.86F WCI  25
KANKAKEE*      CLEAR     33  29  83 S10G16    29.88F WCI  25
MORRIS*        CLEAR     30  29  96 S7        29.85F WCI  23
LEWIS AIRPORT* CLEAR     31  28  89 S9        29.85F WCI  23
NORTHERLY IS     N/A     33  27  79 S9          N/A  WCI  25
$$

WIZ051-052-058>065-066-070>072-290800-
SOUTHEAST WISCONSIN

CITY           SKY/WX    TMP DP  RH WIND       PRES   REMARKS
MILWAUKEE      CLOUDY    33  28  81 SE7       29.83F WCI  27
KENOSHA*       MOCLDY    32  28  85 SE8       29.83F WCI  25
RACINE*        CLOUDY    34  29  82 S10       29.84F WCI  26
BURLINGTON     MOCLDY    27  26  99 CALM      29.80F FOG
WAUKESHA       MOCLDY    28  28 100 SE6       29.81F FOG     WCI  22
WEST BEND      CLOUDY    30  28  93 E5        29.81F FOG     WCI  25
$$

INZ001>003-010>013-019-020-290800-
NORTHWEST INDIANA

CITY           SKY/WX    TMP DP  RH WIND       PRES   REMARKS
GARY*          PTCLDY    33  26  76 SE9       29.90S WCI  25
MICHIGAN CITY* NOT AVBL
RENSSELAER*    NOT AVBL
VALPARAISO     PTCLDY    30  24  78 SE7       29.91F WCI  23
$$

LMZ740>746-290800-
SOUTHERN LAKE MICHIGAN

STATION/POSITION TIME  SKY/WX   TEMP WIND        PRES    VSBY
                                AIR  DIR/SP/G
                 (UTC)          (F)  (DEG/KT/KT) (MB)    (MI)
HARRISON CRIB    0700            34  180/ 19/ 22   N/A
BURNHAM HARBOR   0700            33  160/  6/ 10   N/A
CALUMET HARBOR   0700            33  160/  8/ 12 1010.8S
BURNS HARBOR     NOT AVBL
MICHIGAN CITY    0700            35  140/ 12/ 17   N/A
$$

ABBREVIATIONS USED IN REMARKS
   TC - TEMPERATURE IN CELSIUS
  WCI - WIND CHILL INDEX
   HX - HEAT INDEX
  VSB - VISIBILITY
$$



USA.gov is the U.S. government's official web portal to all federal, state and local government web resources and services.